PRAETORIAN SDA_604

Last updated on Thu Aug 20 2026 00:03:39 GMT+0000 (Coordinated Universal Time)

1 65567U 25203C 26230.71960036 .00000036 00000+0 22251-4 0 9990 2 65567 81.3074 313.3180 0006105 42.3085 317.8541 13.83054070 47323
UTC large
Height (km)
Speed (km/s)
/
Latitude / Longitude
Inclination (degrees)
Orbital Period (minutes)
Azimuth
Elevation
Range (km)
Doppler Factor

Next 0 passes for location: London (51.5072 / 0.1276)

No passes found over London.
PRAETORIAN SDA_604